Regional Weather Roundup
Issued by NWS Austin/San Antonio, TX

Home | Current Version | Previous Version | Text Only | Print | Product List | Glossary On
Versions: 1 2 3 4 5 6 7 8 9 10 11 12 13 14 15 16 17 18 19 20 21 22 23 24 25 26 27 28 29 30 31 32 33 34 35 36 37 38 39 40 41 42 43 44 45 46 47 48 49 50
000
ASUS44 KEWX 232311
RWREWX
SOUTH TEXAS REGIONAL WEATHER ROUNDUP
NATIONAL WEATHER SERVICE AUSTIN/SAN ANTONIO TX
500 PM CST SUN FEB 23 2020

NOTE: "FAIR" INDICATED FEW OR NO CLOUDS BELOW 12,000 FEET WITH NO
SIGNIFICANT WEATHER AND/OR OBSTRUCTIONS TO VISIBILITY.

* - THESE STATIONS ARE NOT NWS OR FAA STATIONS...AND ARE NOT SUBJECT
    TO NWS AND FAA QUALITY CONTROL.

TXZ171-172-183>190-240000-
TEXAS HILL COUNTRY AND EDWARDS PLATEAU

CITY           SKY/WX    TMP DP  RH WIND       PRES   REMARKS
JUNCTION       MOSUNNY   62  54  74 S5        29.91F
*LLANO         CLOUDY    64  57  77 CALM      29.95F
BURNET         CLOUDY    61  55  81 NE5       29.94S
*HORSESHOE BAY NOT AVBL
*LAGO VISTA    CLOUDY    63  58  82 S5        29.92F
*KERRVILLE     CLOUDY    64  56  77 S8        29.92F
*FREDERICKSBRG CLOUDY    62  55  75 SW3       29.93S
*ROCKSPRINGS     N/A     61  54  77 S12       29.95F
*BOERNE        CLOUDY    64  55  72 CALM      29.93F
*CASTROVILLE   CLOUDY    74  56  54 S8        29.92S
HONDO          PTSUNNY   72  56  57 S12       29.89F
*UVALDE        MOSUNNY   71  56  60 SE5       29.91S
DEL RIO        SUNNY     75  51  43 SE10      29.84F
*LAUGHLIN AFB    N/A     74  53  47 SE8       29.85F
*SPOFFORD      NOT AVBL
*EAGLE PASS    SUNNY     79  52  38 SE6G12    29.85S
CARRIZO SPRGS  SUNNY     77  55  47 S7        29.85S
*FAITH RANCH   SUNNY     79  55  44 SE13      29.85S
$$

TXZ173-191>194-202-209-217>225-228-240000-
CENTRAL AND SOUTH CENTRAL TEXAS

CITY           SKY/WX    TMP DP  RH WIND       PRES   REMARKS
GEORGETOWN     CLOUDY    62  57  83 N3        29.94F
*TAYLOR        CLOUDY    65  59  81 SE7       29.92F
AUSTIN/BERGSTM CLOUDY    69  59  70 SE7       29.91F
AUSTIN/MABRY   CLOUDY    69  56  62 VRB6      29.92F
*PFLUGERVILLE  CLOUDY    66  57  72 S8        29.93S
SAN MARCOS     CLOUDY    71  59  65 S10       29.93R
NEW BRAUNFELS  CLOUDY    72  58  61 SW12      29.90R
*RANDOLPH AFB  CLOUDY    71  58  64 S9        29.90R
*SEGUIN        CLOUDY    71  58  62 S9        29.95R
SAN ANTONIO    CLOUDY    71  57  61 S8        29.90S
STINSON FIELD  CLOUDY    71  57  61 S9        29.88S
*KELLY FIELD   CLOUDY    72  57  60 S8        29.87F
*PLEASANTON    PTSUNNY   73  57  56 SE10G16   29.89R
*KENEDY        CLOUDY    72  60  66 S17       29.90F
*LA GRANGE     CLOUDY    69  62  78 SE8       29.90F
*GIDDINGS      CLOUDY    67  61  79 SE5       29.94S
*GONZALES      CLOUDY    72  60  65 S10       29.90F
$$

TXZ163>164-176>182-195>201-210>213-226-227-235-240000-
SOUTHEAST TEXAS

CITY           SKY/WX    TMP DP  RH WIND       PRES   REMARKS
COLLEGE STN    CLOUDY    64  60  87 SE8       29.96S
*BRYAN         CLOUDY    62  62 100 E7        29.98R FOG
*CALDWELL      CLOUDY    62  62  97 SE6       29.95S
*CROCKETT      NOT AVBL
*BRENHAM       CLOUDY    65  60  85 SE7       29.95F
HUNTSVILLE     CLOUDY    60  58  92 VRB6      29.96F FOG
CONROE         CLOUDY    64  56  75 SE6       30.00S
HOUSTON BUSH   CLOUDY    65  56  72 SE16      29.98F
HOUSTON HOBBY  CLOUDY    68  56  65 SE13      29.99S
*HOUSTON SW AP CLOUDY    66  58  75 SE8       29.99S
PEARLAND       CLOUDY    67  57  70 SE12      30.00F
HOUSTON HOOKS  CLOUDY    64  56  75 E9        29.99S
ELLINGTON FLD  CLOUDY    66  59  77 E16       29.99F
SUGAR LAND     CLOUDY    69  58  67 SE15      29.97S
*HOUSTON EXEC  CLOUDY    68  57  68 S14G20    29.98S
*CLEVELAND MUN CLOUDY    64  56  77 SE6       30.01F
*WHARTON       CLOUDY    69  56  65 SE20      29.96F
*COLUMBUS      CLOUDY    66  55  68 S12       29.95S
*EAGLE LAKE    CLOUDY    70  61  72 S13G18    29.95
$$

TXZ214>216-236>238-240000-
THE UPPER TEXAS COAST

CITY           SKY/WX    TMP DP  RH WIND       PRES   REMARKS
*ORANGE        CLOUDY    65  56  72 SE9       30.05F
PORT ARTHUR    CLOUDY    65  56  72 SE15G21   30.02F
GALVESTON      CLOUDY    65  60  84 E14       30.01S
ANGLETON       CLOUDY    68  58  70 SE16      29.98F
*BAY CITY      CLOUDY    71  62  74 SE13      29.96F
PALACIOS       CLOUDY    69  60  73 SE12      29.97S
$$

TXZ229>234-239>247-240000-
TEXAS COASTAL BEND AND RIO GRANDE PLAINS

CITY           SKY/WX    TMP DP  RH WIND       PRES   REMARKS
VICTORIA       CLOUDY    72  60  66 S20       29.93F
*BEEVILLE      PTSUNNY   74  65  72 S16G22    29.88F
ROCKPORT       CLOUDY    70  61  73 SE12      29.93F
*PORT ARANSAS  CLOUDY    67  63  86 SE10      29.94F
*PORT LAVACA   CLOUDY    72  64  74 S14       29.97R
*INGLESIDE     PTSUNNY   71  65  82 S13G20    29.92F
CORPUS CHRISTI CLOUDY    73  63  70 SE24G31   29.91F
CORPUS NAS     CLOUDY    70  65  84 SE15      29.92F
*ROBSTOWN      CLOUDY    73  63  69 SE21      29.91F
ALICE          CLOUDY    75  63  66 SE13G23   29.89F
KINGSVILLE NAS PTSUNNY   74  64  71 SE16      29.89F
COTULLA        SUNNY     79  59  50 SE12G18   29.85F
LAREDO         SUNNY     80  58  46 SE15      29.83F
$$

TXZ248>255-240000-
DEEP SOUTH TEXAS

CITY           SKY/WX    TMP DP  RH WIND       PRES   REMARKS
BROWNSVILLE    PTSUNNY   75  64  68 SE22      29.91F
PORT ISABEL    CLOUDY    74  65  73 SE17      29.91S
HARLINGEN      PTSUNNY   77  64  64 SE21G31   29.89F
*HEBBRONVILLE  SUNNY     78  57  47 SE15      29.88S
MCALLEN        SUNNY     80  61  52 SE18G26   29.87F
*WESLACO       PTSUNNY   77  61  56 S20G29    29.87
FALFURRIAS     PTSUNNY   83  61  47 SE14G20   29.87F
EDINBURG       FAIR      79  57  47 S20G25    29.87F
*ZAPATA        FAIR      84  57  39 SE7       29.85F
$$

TXZ213>215-236>238-242>244-246-247-251-254-255-240000-
CMAN STATIONS

STATION/POSITION TIME  TEMP    WIND        PRES    WAVE
                       AIR SEA DIR/SP/G            HT/PER
                 (UTC) (F)     (DEG/KT/KT) (MB)    (FT/S)
SABINE PASS      2230   62 60  120/ 10/ 14 1019.0
NORTH JETTY/GLS  2230   62 59  120/ 17/ 20 1015.0
EAGLE POINT      2230   60 57  120/ 10/ 12 1015.5
MORGANS POINT    2230   61 59  120/ 11/ 14 1016.1
PORT O`CONNOR    2230   64 64  140/ 11/ 12 1014.0
PORT ARANSAS     2300   64 61  110/  9/ 10 1013.2
MALAQUITE BEACH  2230   66 63  110/ 10/ 11 1012.9
BAFFIN BAY       2230   67 67  120/ 16/ 19 1013.1
PORT ISABEL      2230   69 63  140/ 12/ 15 1013.6
$$



USA.gov is the U.S. government's official web portal to all federal, state and local government web resources and services.